Temp
68 68 68 68 68 66 66 66 65 65 65 66 65 65 65 65 65 65 65 65 65 66 66 65 65 65 62 62 65 73 77 76 72 72 69 66 64 62 59 60 61 57 60 63 64 62 63
68 68 68 67 67 67 67 66 66 66 65 65 65 65 65 64 64 64 64 64 65 65 64 65 65 64 61 58 71 73 72 71 71 70 67 67 65 66 62 61 60 61 60 61 62 63 63
68 67 67 67 67 67 67 66 66 66 66 65 65 65 65 64 63 63 64 64 64 64 64 64 64 63 60 63 71 71 72 71 71 71 66 68 69 66 64 59 63 61 57 58 60 62 62
67 67 67 67 67 67 66 66 65 65 66 66 65 65 64 63 63 63 64 64 63 63 64 64 64 61 58 70 70 71 72 72 72 73 71 71 71 67 64 64 60 56 54 50 59 60 62
67 67 67 67 67 66 66 65 65 64 64 65 65 64 63 63 62 63 63 64 64 65 65 64 61 59 58 72 69 71 71 69 70 70 71 74 68 60 61 54 51 50 48 46 52 59 59
67 67 66 66 66 66 66 65 65 64 64 64 65 64 62 62 62 62 62 63 64 64 64 64 64 56 63 60 66 68 71 70 67 66 65 63 57 53 52 52 44 46 45 46 46 56 58
67 66 66 66 65 65 65 65 64 64 63 63 64 64 62 62 62 61 58 58 53 55 54 53 52 54 58 63 65 65 68 67 66 61 54 55 51 47 51 52 50 49 47 45 49 55 52
66 66 66 65 65 65 65 65 64 64 63 63 63 63 61 61 61 60 57 51 50 51 42 52 53 54 58 61 57 63 68 60 58 52 54 51 46 52 53 52 50 48 46 46 50 53 51
66 66 66 65 65 65 64 64 63 63 63 63 62 62 61 60 60 56 52 52 54 54 42 49 55 55 59 60 57 59 63 58 54 49 49 47 51 54 52 49 47 47 45 45 47 50 52
66 66 66 65 65 65 64 63 63 63 63 62 62 61 60 61 57 51 52 55 53 55 40 48 53 58 61 60 55 63 62 60 55 50 49 48 53 51 49 47 49 42 51 50 47 45 41
66 66 65 65 65 65 64 63 63 62 62 61 61 60 59 59 52 52 55 53 53 51 36 52 54 65 59 56 55 58 60 59 51 51 51 48 49 49 47 49 50 47 50 49 48 44 42
66 66 66 65 64 64 63 62 62 62 62 62 61 60 58 55 51 54 54 53 52 43 35 47 53 51 51 52 53 55 55 57 56 50 50 48 53 49 48 49 50 50 49 47 45 42 35
64 64 64 63 63 62 61 62 62 62 62 61 61 60 58 58 51 55 53 51 40 35 49 45 46 49 46 46 48 48 46 46 45 41 40 45 45 46 48 44 48 47 43 34 33 32 34
62 61 61 61 60 60 59 60 61 62 61 61 60 59 58 59 55 54 52 45 32 42 41 48 46 46 44 45 45 44 42 41 42 42 37 37 37 42 45 43 41 41 41 34 26 29 32
61 61 61 61 61 61 61 61 61 61 60 59 57 54 54 54 55 54 46 33 36 38 45 44 45 40 40 43 42 42 40 39 41 41 39 33 34 43 44 45 44 40 36 40 33 33 28
62 61 61 60 60 59 60 60 61 61 60 57 52 51 49 50 54 53 44 37 40 46 47 46 38 42 36 39 39 39 39 41 40 41 42 39 32 38 42 45 43 41 42 33 32 20 21
61 61 61 60 59 58 58 59 60 60 59 57 52 45 47 49 56 47 36 34 41 48 49 44 40 39 40 39 39 37 40 41 42 40 41 38 35 34 38 34 34 37 35 35 34 30 24
61 61 61 60 58 58 57 58 59 59 57 55 48 38 46 52 39 41 35 41 47 45 46 46 45 44 42 43 40 39 36 40 44 42 37 39 35 29 31 37 39 38 33 33 27 25 25
60 60 60 59 58 57 56 56 59 58 55 50 45 41 48 49 34 30 35 38 43 43 43 45 43 44 42 39 35 35 37 41 42 42 37 39 32 22 26 33 36 31 33 33 28 27 20
59 60 60 59 58 57 56 56 55 55 55 49 42 36 36 42 40 36 34 37 39 42 42 43 40 41 37 34 36 32 32 38 40 40 45 42 30 27 23 27 29 26 29 30 27 20 19
59 59 59 59 58 57 56 56 56 55 54 49 41 37 38 25 34 35 36 35 34 34 38 38 35 35 34 29 30 29 33 32 36 40 39 37 26 30 31 31 31 30 30 27 22 24 21
58 58 58 58 57 57 56 55 55 55 54 44 38 36 37 33 33 32 33 32 31 35 35 33 33 37 35 30 33 30 33 31 31 36 35 35 27 29 25 28 29 27 30 30 30 28 25
58 57 57 57 57 56 56 56 55 54 50 39 38 42 40 36 32 31 28 31 32 37 37 38 35 34 31 34 39 38 40 38 37 34 30 30 26 24 21 25 25 22 28 30 30 31 29
57 57 57 57 56 56 55 55 55 55 52 45 40 39 35 30 33 32 34 35 33 36 35 39 38 35 37 42 41 39 36 35 34 32 34 28 25 24 20 22 15 31 35 35 32 33 34
56 55 56 56 56 55 55 55 55 54 53 42 40 41 37 32 35 35 35 35 35 37 37 36 40 42 43 35 27 25 28 29 28 30 31 32 28 17 17 18 24 30 32 32 30 31 37
55 56 55 55 55 55 54 54 54 53 53 45 40 42 41 33 28 37 36 38 34 34 33 37 36 42 36 30 25 19 19 24 23 24 31 29 27 21 14 13 15 29 35 39 37 27 39
54 54 54 54 54 54 54 54 53 52 51 43 43 44 40 32 36 37 33 33 37 35 31 32 32 32 34 25 23 22 24 30 21 22 21 21 18 16 18 13 21 32 36 39 23 27 39
54 54 53 53 53 53 52 52 53 51 51 42 39 44 39 33 34 38 40 35 35 34 29 31 30 30 29 23 23 24 24 27 26 27 24 21 15 13 13 11 16 35 36 30 36 39 40
53 53 54 54 54 53 53 53 53 53 51 45 36 41 45 37 35 40 42 43 43 42 37 34 31 30 32 27 26 30 26 25 27 21 27 22 24 20 20 23 33 36 37 40 40 39 40
MSLP
1022.18 1022.16 1021.97 1021.80 1021.66 1021.65 1021.54 1021.31 1021.08 1020.91 1020.67 1020.44 1020.15 1019.79 1019.39 1018.93 1018.48 1017.98 1017.45 1016.87 1016.32 1015.76 1015.19 1014.72 1014.47 1014.44 1014.24 1013.91 1012.52 1011.71 1011.62 1011.69 1011.92 1012.12 1012.34 1012.72 1013.12 1013.55 1013.85 1013.93 1013.98 1014.00 1013.66 1013.39 1013.13 1013.05 1012.74
1021.93 1021.86 1021.79 1021.67 1021.56 1021.52 1021.41 1021.12 1020.92 1020.73 1020.52 1020.33 1020.07 1019.77 1019.39 1018.92 1018.44 1017.85 1017.17 1016.47 1015.91 1015.33 1014.83 1014.20 1014.02 1014.23 1014.34 1013.62 1012.05 1011.86 1011.91 1012.08 1012.20 1012.45 1012.67 1012.80 1012.85 1012.99 1013.34 1013.58 1013.84 1013.61 1013.40 1013.11 1012.70 1012.34 1012.26
1021.82 1021.78 1021.73 1021.65 1021.56 1021.44 1021.32 1021.12 1020.82 1020.53 1020.24 1020.05 1019.89 1019.61 1019.25 1018.79 1018.22 1017.54 1016.75 1016.12 1015.46 1014.89 1014.53 1014.22 1014.05 1014.07 1013.96 1012.65 1012.05 1012.11 1012.06 1012.21 1012.34 1012.48 1012.80 1012.89 1012.99 1013.37 1013.78 1014.02 1014.02 1013.95 1013.95 1013.35 1012.79 1012.63 1012.25
1021.70 1021.66 1021.62 1021.54 1021.44 1021.32 1021.20 1021.02 1020.80 1020.50 1020.14 1019.91 1019.74 1019.45 1019.09 1018.62 1018.04 1017.25 1016.19 1015.55 1014.88 1014.42 1014.42 1014.48 1014.42 1014.36 1013.28 1012.08 1011.94 1011.96 1012.04 1012.15 1012.39 1012.58 1012.78 1012.89 1013.18 1013.59 1013.87 1014.14 1014.44 1014.73 1014.76 1014.42 1013.47 1013.04 1012.65
1021.45 1021.44 1021.45 1021.41 1021.33 1021.23 1021.14 1021.00 1020.80 1020.56 1020.27 1019.99 1019.70 1019.43 1019.20 1018.77 1018.17 1017.27 1016.00 1015.26 1014.69 1014.44 1014.46 1014.49 1014.60 1014.40 1013.12 1012.14 1012.31 1012.33 1012.20 1012.32 1012.37 1012.52 1012.57 1012.83 1013.36 1014.32 1014.64 1015.14 1015.30 1015.15 1014.74 1014.60 1013.98 1013.45 1013.31
1021.06 1021.12 1021.18 1021.14 1021.11 1021.04 1020.91 1020.78 1020.64 1020.52 1020.32 1020.02 1019.66 1019.42 1019.24 1018.85 1018.34 1017.50 1015.97 1014.92 1014.57 1014.52 1014.48 1014.47 1014.59 1014.84 1013.43 1013.42 1013.02 1012.76 1012.47 1012.42 1012.64 1012.89 1013.18 1013.62 1014.45 1014.97 1015.50 1015.59 1015.45 1015.47 1015.49 1015.16 1014.76 1013.91 1013.48
1020.76 1020.80 1020.86 1020.90 1020.84 1020.82 1020.79 1020.68 1020.59 1020.45 1020.32 1020.04 1019.75 1019.41 1019.30 1018.98 1018.49 1017.64 1016.50 1015.51 1015.99 1015.56 1015.61 1015.83 1015.80 1015.27 1014.41 1013.76 1013.22 1012.80 1012.58 1012.67 1013.04 1013.61 1014.25 1014.67 1015.18 1015.54 1015.50 1015.58 1015.86 1015.94 1015.73 1015.25 1014.70 1014.12 1013.73
1020.44 1020.48 1020.50 1020.54 1020.62 1020.63 1020.62 1020.60 1020.53 1020.33 1020.13 1019.98 1019.75 1019.42 1019.20 1018.84 1018.44 1018.04 1017.58 1018.67 1019.82 1020.05 1018.21 1016.17 1015.69 1015.41 1014.54 1014.27 1013.72 1012.99 1012.78 1013.15 1013.43 1014.13 1014.71 1015.34 1015.23 1015.22 1015.24 1015.52 1015.71 1015.78 1015.59 1015.08 1014.39 1013.83 1013.84
1020.08 1020.12 1020.18 1020.21 1020.27 1020.36 1020.34 1020.36 1020.33 1020.19 1020.02 1019.82 1019.62 1019.41 1019.23 1018.86 1018.53 1018.65 1019.23 1019.67 1019.65 1019.68 1019.32 1016.47 1015.48 1014.96 1014.40 1014.44 1014.05 1013.66 1013.43 1013.61 1013.94 1014.51 1014.78 1015.04 1014.79 1014.91 1015.20 1015.42 1015.65 1015.61 1015.35 1014.94 1014.69 1014.11 1013.79
1019.71 1019.71 1019.74 1019.78 1019.81 1019.93 1020.02 1020.00 1019.98 1019.97 1019.89 1019.78 1019.62 1019.46 1019.33 1018.86 1019.01 1019.66 1019.58 1019.71 1019.60 1019.42 1018.75 1016.14 1014.86 1014.10 1014.02 1013.95 1014.00 1013.76 1013.60 1013.83 1014.27 1014.66 1015.11 1015.17 1014.87 1014.90 1015.01 1015.27 1015.26 1015.33 1014.77 1014.59 1014.52 1014.50 1014.05
1019.20 1019.29 1019.36 1019.51 1019.52 1019.59 1019.75 1019.81 1019.83 1019.85 1019.83 1019.71 1019.54 1019.47 1019.56 1019.18 1019.92 1019.98 1019.90 1019.64 1019.55 1019.70 1017.96 1015.38 1014.20 1013.45 1013.67 1014.00 1014.17 1013.93 1014.00 1013.80 1014.36 1014.75 1015.39 1015.24 1015.25 1015.36 1015.64 1015.34 1015.36 1015.07 1014.73 1014.76 1014.68 1014.60 1014.46
1018.62 1018.77 1018.88 1019.05 1019.15 1019.24 1019.42 1019.57 1019.62 1019.67 1019.71 1019.69 1019.54 1019.58 1019.76 1019.98 1020.19 1019.90 1019.63 1019.60 1019.58 1019.41 1016.98 1015.07 1014.39 1014.19 1014.43 1014.68 1014.90 1014.77 1014.53 1014.43 1014.78 1015.31 1015.72 1015.64 1015.79 1016.04 1015.93 1015.67 1015.48 1015.27 1015.03 1014.99 1015.08 1014.97 1014.43
1018.88 1018.76 1018.67 1018.76 1018.82 1019.03 1019.40 1019.50 1019.45 1019.44 1019.37 1019.44 1019.41 1019.38 1019.61 1019.84 1019.89 1019.49 1019.31 1019.49 1020.06 1018.86 1016.55 1016.06 1015.61 1015.39 1015.52 1015.52 1015.56 1015.58 1015.54 1015.54 1015.81 1016.18 1016.52 1016.42 1016.35 1016.56 1016.47 1016.30 1015.79 1015.66 1015.66 1015.76 1015.73 1015.70 1014.33
1019.24 1019.37 1019.26 1019.23 1019.34 1019.46 1019.50 1019.56 1019.45 1019.24 1019.13 1019.11 1019.15 1019.37 1019.52 1019.43 1019.61 1019.55 1019.56 1019.93 1020.19 1018.04 1017.06 1016.31 1016.08 1015.95 1016.09 1015.79 1016.03 1016.24 1016.66 1016.90 1016.61 1016.59 1017.01 1017.26 1016.93 1016.86 1016.95 1016.89 1016.60 1016.30 1016.16 1015.96 1015.76 1015.69 1015.60
1019.81 1019.75 1019.76 1019.74 1019.66 1019.58 1019.52 1019.43 1019.29 1019.09 1018.93 1018.99 1019.22 1019.49 1019.82 1019.47 1019.56 1019.84 1020.02 1020.46 1018.69 1018.04 1017.23 1017.04 1016.65 1016.54 1016.75 1017.11 1017.44 1017.27 1017.23 1017.23 1017.06 1017.07 1017.30 1017.39 1017.56 1017.48 1017.54 1017.31 1017.40 1017.11 1017.14 1017.38 1016.75 1017.21 1017.03
1020.08 1020.03 1019.96 1019.94 1019.96 1019.81 1019.62 1019.35 1019.16 1018.79 1018.79 1018.92 1019.68 1020.05 1020.36 1020.36 1019.84 1020.17 1020.56 1019.93 1018.75 1017.69 1017.29 1017.21 1017.63 1017.27 1017.54 1017.65 1017.87 1018.30 1017.92 1017.53 1017.60 1017.87 1017.85 1017.73 1018.24 1018.30 1018.13 1018.30 1018.10 1017.44 1018.00 1018.11 1018.56 1018.84 1017.62
1020.42 1020.22 1019.98 1019.95 1019.84 1019.77 1019.54 1019.14 1018.82 1018.49 1018.37 1018.81 1019.54 1020.21 1020.56 1020.28 1020.18 1020.41 1020.83 1020.18 1018.76 1017.88 1017.70 1017.90 1017.81 1017.75 1017.95 1018.10 1018.39 1018.73 1018.38 1017.98 1017.92 1018.17 1018.61 1018.57 1018.82 1019.25 1019.24 1019.24 1019.18 1018.87 1018.61 1018.91 1019.69 1019.91 1018.95
1020.53 1020.35 1020.14 1020.07 1019.96 1019.84 1019.64 1019.05 1018.23 1017.92 1018.27 1018.77 1019.48 1020.62 1020.62 1020.27 1021.16 1020.84 1020.45 1019.90 1019.17 1018.51 1017.99 1017.96 1017.83 1018.01 1018.45 1018.58 1018.58 1018.91 1018.62 1018.37 1018.24 1018.47 1018.70 1019.04 1019.26 1019.63 1019.91 1020.14 1020.34 1020.08 1019.97 1020.16 1020.50 1020.78 1020.65
1020.78 1020.49 1020.23 1020.11 1020.10 1020.06 1019.94 1019.31 1017.97 1018.10 1018.80 1019.18 1019.91 1020.83 1021.01 1020.73 1020.92 1021.19 1020.82 1020.17 1019.87 1019.05 1018.62 1018.26 1018.22 1018.36 1018.83 1019.08 1019.30 1019.33 1019.30 1019.52 1019.01 1019.03 1019.05 1019.16 1019.84 1020.67 1020.66 1020.69 1020.71 1020.66 1021.02 1021.58 1021.71 1021.90 1021.81
1021.00 1020.61 1020.26 1020.24 1020.26 1020.28 1020.12 1019.74 1019.50 1019.42 1019.39 1019.56 1020.45 1021.11 1021.46 1021.58 1021.53 1021.36 1021.11 1020.37 1020.04 1019.88 1019.38 1019.06 1019.14 1019.25 1019.53 1019.83 1019.92 1020.17 1020.09 1020.28 1020.26 1020.11 1019.71 1019.85 1021.17 1021.03 1020.74 1020.43 1020.89 1021.57 1021.43 1022.21 1022.52 1022.99 1022.53
1021.09 1020.95 1020.74 1020.50 1020.36 1020.29 1020.28 1019.99 1019.85 1019.62 1019.45 1019.82 1020.70 1021.35 1021.92 1021.94 1022.03 1021.53 1021.80 1021.28 1020.60 1020.42 1020.54 1020.23 1019.89 1020.00 1020.09 1020.27 1020.29 1019.99 1020.83 1020.82 1020.89 1020.94 1020.98 1021.10 1021.33 1021.38 1021.21 1020.93 1021.07 1021.51 1021.58 1022.21 1022.67 1022.65 1022.74
1021.16 1020.92 1020.81 1020.84 1020.76 1020.53 1020.46 1020.46 1020.27 1020.19 1020.00 1020.63 1021.14 1021.34 1021.71 1022.27 1022.24 1022.16 1021.98 1021.57 1021.04 1020.50 1020.57 1020.59 1020.63 1019.89 1019.91 1020.26 1020.14 1020.25 1020.56 1021.09 1020.84 1021.05 1021.33 1021.42 1021.66 1021.85 1021.72 1021.69 1021.72 1021.54 1021.14 1021.48 1022.00 1022.01 1021.85
1021.21 1021.09 1020.95 1020.88 1020.81 1020.61 1020.46 1020.53 1020.45 1020.33 1020.27 1021.03 1022.32 1022.28 1022.00 1021.76 1022.22 1022.26 1021.64 1021.18 1020.64 1020.56 1019.81 1019.75 1020.05 1020.26 1020.04 1019.68 1019.99 1020.10 1020.12 1020.62 1021.04 1021.14 1021.50 1021.85 1022.25 1022.68 1022.56 1022.38 1022.12 1021.42 1020.28 1020.63 1020.86 1020.85 1020.67
1021.21 1021.08 1021.27 1021.20 1020.98 1020.96 1020.65 1020.65 1020.54 1020.58 1020.56 1021.13 1021.95 1022.04 1022.13 1021.61 1021.64 1021.60 1021.40 1021.19 1020.83 1020.32 1020.21 1019.70 1019.90 1020.07 1019.72 1019.53 1020.13 1020.77 1020.73 1020.98 1021.42 1021.44 1021.40 1022.16 1022.79 1023.31 1023.37 1023.04 1022.13 1020.20 1019.81 1019.84 1020.00 1019.82 1019.69
1021.24 1021.15 1020.96 1020.92 1020.88 1020.89 1020.88 1021.11 1020.83 1020.57 1020.57 1021.07 1021.32 1021.59 1021.82 1021.40 1021.35 1021.08 1021.01 1020.61 1020.19 1019.87 1019.62 1019.49 1019.50 1019.44 1019.53 1020.31 1021.36 1021.69 1021.51 1021.41 1021.76 1021.99 1022.10 1022.13 1022.92 1024.07 1024.23 1023.40 1021.67 1020.02 1019.51 1019.41 1019.39 1019.12 1018.70
1021.18 1021.11 1021.11 1021.09 1021.09 1020.92 1020.82 1020.82 1020.66 1020.51 1019.94 1020.39 1020.99 1021.10 1021.55 1021.59 1020.77 1020.84 1020.58 1020.11 1019.71 1019.48 1019.47 1019.17 1019.88 1019.82 1020.15 1020.81 1021.42 1021.52 1021.11 1020.83 1021.53 1022.35 1022.66 1022.91 1023.37 1024.10 1024.74 1023.62 1021.89 1020.04 1019.25 1018.91 1019.04 1018.80 1018.35
1021.22 1021.19 1021.16 1021.11 1021.03 1021.13 1020.89 1020.68 1020.72 1020.62 1020.55 1020.67 1021.00 1021.09 1021.47 1021.14 1020.76 1020.90 1020.86 1020.15 1019.83 1019.46 1019.39 1019.78 1020.10 1020.58 1020.55 1020.80 1021.13 1020.66 1020.15 1019.80 1020.68 1021.49 1022.59 1023.51 1024.24 1024.79 1024.49 1023.54 1021.68 1019.76 1019.04 1019.05 1019.21 1018.82 1017.98
1021.20 1021.06 1021.21 1021.20 1021.04 1020.94 1020.93 1020.92 1020.69 1020.67 1020.58 1020.92 1021.43 1021.22 1021.27 1021.34 1020.62 1020.25 1019.91 1019.77 1019.68 1019.82 1019.59 1020.00 1020.42 1020.40 1020.65 1020.96 1020.93 1020.00 1019.63 1019.56 1019.91 1020.65 1021.41 1022.32 1023.76 1024.50 1024.36 1023.29 1020.97 1018.94 1019.06 1018.75 1017.97 1017.61 1017.62
1021.24 1021.26 1021.01 1021.08 1021.02 1020.91 1020.79 1020.77 1020.63 1020.44 1020.63 1020.79 1021.35 1021.25 1021.09 1021.40 1020.53 1019.95 1019.63 1019.12 1018.82 1018.55 1018.92 1019.35 1019.28 1019.25 1019.59 1020.31 1020.43 1019.66 1019.69 1019.70 1019.77 1020.61 1021.04 1021.49 1021.25 1021.78 1021.82 1020.53 1019.16 1018.56 1017.87 1017.57 1017.55 1017.62 1017.48
Wind_Speed
5 8 9 8 8 7 10 10 9 9 11 14 15 17 18 19 21 22 22 22 22 21 21 19 13 8 3 2 6 0 5 7 5 4 5 4 4 4 3 3 3 5 4 4 5 7 7
8 8 9 10 11 9 11 13 12 9 8 11 14 16 17 19 21 22 23 23 24 22 20 15 2 1 2 2 1 3 5 3 3 3 3 4 6 4 3 4 4 4 4 6 7 6 5
10 8 9 9 10 11 12 12 15 13 10 8 13 15 18 19 20 22 24 23 23 21 15 4 4 2 4 7 2 2 1 0 3 3 3 2 3 3 2 3 3 3 6 7 5 2 3
9 9 10 10 10 10 11 10 11 12 11 9 12 15 17 18 20 24 26 23 22 11 4 3 2 1 4 2 1 0 2 1 2 1 1 1 2 3 1 2 5 4 2 4 5 5 2
8 8 8 9 8 8 9 10 11 12 11 10 11 13 16 18 21 25 28 24 11 3 2 2 2 2 5 5 4 4 2 2 3 2 2 5 4 3 4 3 4 2 6 2 6 3 4
7 7 7 7 7 7 8 9 10 11 12 13 10 11 13 17 20 25 28 18 6 4 2 2 1 2 4 3 4 5 3 1 3 3 3 5 4 3 3 2 5 3 4 3 4 4 9
7 7 7 7 7 7 8 8 9 10 11 12 13 12 11 15 18 22 13 6 10 6 10 5 5 5 4 8 3 1 1 3 3 6 2 3 2 5 9 5 2 1 3 10 7 10 8
8 8 7 7 7 7 7 8 9 10 11 12 12 11 10 14 16 13 5 7 2 4 11 3 5 5 5 2 3 3 2 4 3 4 3 2 5 7 5 4 5 5 6 10 9 8 4
9 8 8 8 7 6 5 6 7 7 8 9 10 10 10 13 11 5 3 3 4 3 2 8 3 4 3 4 1 4 2 2 3 4 5 7 4 3 4 4 6 6 8 5 11 5 5
9 9 9 9 7 6 5 4 5 7 8 8 9 8 9 14 5 3 2 3 3 2 4 5 3 1 1 2 3 2 3 2 1 4 5 5 3 4 4 5 7 6 8 13 8 3 5
9 10 9 10 8 8 6 5 6 7 8 8 8 4 6 7 2 2 5 5 1 1 6 1 1 1 1 3 2 0 1 1 4 4 4 4 1 1 3 4 4 6 4 4 4 4 3
9 10 9 10 10 9 6 5 6 7 8 8 8 2 4 2 1 4 5 5 2 5 8 1 2 3 2 4 4 6 3 6 1 2 2 4 1 1 2 3 3 3 3 0 1 2 9
9 9 7 7 5 3 4 5 7 7 7 7 6 2 3 2 2 5 3 3 5 3 7 4 3 4 2 2 2 3 2 1 3 0 3 1 2 2 0 2 1 2 3 3 5 4 9
13 13 13 12 11 9 7 10 10 10 8 6 5 4 3 2 1 5 3 6 3 4 5 2 2 2 5 2 2 0 1 3 3 3 3 5 10 6 1 1 1 2 4 6 7 5 5
11 10 10 8 6 6 7 10 10 10 8 4 10 1 2 2 3 2 5 3 8 6 2 4 4 3 2 3 2 3 3 5 5 7 8 6 6 0 1 1 1 3 3 3 2 3 4
10 10 11 10 11 11 12 12 13 10 9 12 3 1 1 7 2 2 2 6 6 4 1 3 2 4 3 2 2 2 3 3 4 5 1 2 4 1 1 0 2 2 3 3 3 4 6
8 8 8 9 10 11 13 15 15 12 6 12 3 1 2 5 2 3 4 7 5 4 1 3 3 6 6 8 6 6 6 3 4 3 3 2 2 1 1 1 1 0 2 5 2 3 4
11 11 9 9 11 13 16 20 18 9 8 5 3 1 3 2 3 2 4 5 4 3 1 5 4 8 13 15 18 12 7 4 3 4 5 2 2 1 1 2 4 2 1 3 5 6 1
12 12 10 8 11 13 16 22 14 7 7 4 1 1 2 2 4 3 3 3 3 4 6 3 3 1 2 2 5 3 4 6 4 2 3 4 2 2 4 1 1 2 1 1 4 3 4
13 15 12 10 10 11 13 16 18 15 13 3 2 1 3 2 1 2 2 4 4 3 2 4 1 2 1 3 0 4 3 2 7 4 9 8 2 5 5 2 3 3 4 2 3 2 2
11 13 13 11 9 10 10 12 12 10 10 3 3 0 1 2 3 4 2 4 1 3 1 2 2 7 4 4 4 6 6 3 5 5 3 3 6 6 3 2 2 3 5 8 6 5 6
7 9 10 13 13 12 11 9 11 11 10 4 2 2 1 1 1 1 6 4 5 6 4 4 7 4 9 7 8 4 5 4 4 5 6 3 2 1 3 2 2 8 10 10 11 9 11
5 7 8 8 9 9 11 14 7 7 6 3 1 2 1 4 3 2 5 7 5 2 9 6 8 2 7 16 6 4 5 3 2 5 5 4 5 3 3 2 4 7 8 14 5 5 5
8 5 5 6 8 9 10 10 11 8 4 2 2 2 2 4 4 5 4 5 5 9 11 8 7 8 3 5 6 4 5 6 5 3 3 6 4 2 1 1 3 1 1 5 6 5 10
9 5 3 3 4 6 8 8 9 12 2 3 3 3 2 6 6 8 10 9 8 9 11 11 10 5 10 6 4 3 1 2 2 5 3 1 4 3 3 3 5 1 1 3 4 4 3
7 7 6 6 3 3 4 7 7 11 16 4 2 2 2 2 5 4 10 10 10 8 3 6 5 4 7 3 3 5 6 6 6 4 4 7 6 4 2 3 4 3 3 2 3 5 6
5 5 5 3 4 5 2 5 6 8 8 4 2 2 1 2 0 3 4 3 5 2 3 1 4 2 2 3 4 4 5 5 7 10 7 3 3 4 2 2 7 8 6 3 3 4 4
7 6 5 6 6 5 3 4 5 3 5 3 1 1 2 2 4 8 7 6 4 3 3 3 2 2 3 3 4 4 3 5 4 5 7 8 8 4 3 2 6 7 2 6 4 2 2
7 7 7 7 7 7 6 4 3 5 1 4 1 2 2 2 5 2 6 11 10 11 3 7 2 4 4 3 3 2 2 2 5 5 2 4 7 7 9 7 3 5 4 4 3 3 3
Wind_Direction
277 307 304 313 300 314 323 314 313 325 340 345 346 347 345 341 338 337 332 327 326 324 320 319 317 322 354 19 253 116 110 117 108 127 152 138 133 140 190 195 174 200 239 245 244 280 268
275 288 310 323 333 336 320 313 311 305 317 338 342 343 340 337 336 333 328 323 324 320 319 316 321 351 93 258 36 97 124 124 129 108 159 142 184 185 166 202 189 198 235 258 271 245 239
305 294 298 306 312 318 317 320 332 322 319 331 338 340 341 338 334 329 323 322 318 320 320 2 128 136 105 236 69 349 178 94 168 144 148 224 135 95 106 316 338 324 313 330 263 277 266
300 300 302 304 305 312 321 324 325 338 333 340 340 340 340 336 333 328 323 325 322 326 4 49 74 13 239 243 226 169 129 343 120 161 350 139 118 78 38 95 18 332 39 328 328 351 4
292 293 300 309 319 323 326 328 331 335 338 337 335 336 340 337 335 330 322 325 322 17 80 116 20 30 300 318 45 345 33 63 110 91 80 103 77 80 31 50 335 358 270 236 301 348 337
288 290 298 304 312 320 327 331 334 337 333 322 328 337 340 337 337 332 322 326 303 342 290 214 240 348 357 341 320 332 322 37 90 95 65 55 54 76 61 138 251 259 268 277 276 314 305
275 276 282 295 305 317 326 333 338 343 342 336 336 337 351 337 339 335 341 7 9 353 44 309 283 251 262 296 270 297 308 92 75 59 161 23 128 210 221 202 141 94 260 275 254 263 286
268 273 277 286 298 312 326 337 342 346 347 344 339 328 349 336 336 341 9 68 110 241 309 320 255 266 266 245 292 327 116 127 125 177 124 13 247 238 207 184 218 224 265 272 283 267 213
256 257 261 265 271 286 309 330 336 339 339 338 340 342 350 332 333 38 44 98 287 171 298 308 267 287 315 155 77 332 21 133 114 151 188 188 202 107 155 205 223 230 241 245 264 329 257
257 257 253 254 250 255 275 307 321 329 337 340 339 345 354 326 51 318 28 340 314 161 42 285 346 357 126 264 40 311 1 153 64 213 174 231 260 223 193 233 191 260 232 250 261 291 271
252 259 254 256 249 244 254 280 299 324 330 329 335 3 40 26 256 17 317 340 236 51 342 9 9 252 20 109 233 357 12 17 193 193 133 253 210 202 218 220 163 239 4 258 245 231 311
246 255 253 251 246 233 222 267 309 325 328 335 334 16 118 26 39 260 314 323 67 29 254 11 43 349 360 11 357 319 24 39 77 151 326 245 47 60 237 276 230 312 298 296 64 177 246
13 9 0 350 322 34 15 332 319 317 326 326 319 172 159 138 259 306 319 38 19 181 353 358 346 14 343 302 322 23 13 67 197 122 245 304 212 293 326 270 151 169 137 271 243 210 254
64 62 62 62 54 41 15 330 318 321 325 319 302 161 230 212 225 359 34 52 190 220 251 282 267 271 229 175 213 266 84 260 237 119 150 209 272 176 117 240 202 213 203 189 222 241 303
58 58 53 43 32 6 334 321 319 322 316 319 113 81 295 342 219 45 73 120 216 208 238 314 315 270 298 326 295 325 232 227 218 181 201 180 264 216 14 59 229 164 200 360 40 52 251
53 47 39 31 19 5 349 338 325 319 314 141 109 134 263 326 195 81 106 232 235 211 120 59 243 198 257 279 297 306 251 166 219 209 131 233 279 241 140 331 65 143 128 141 59 239 238
40 31 28 22 20 6 351 340 328 308 288 152 99 7 297 321 236 75 216 237 281 264 196 218 238 272 279 287 228 250 275 267 196 184 154 134 172 156 84 345 180 237 191 66 94 212 255
26 14 16 15 20 12 1 348 330 312 147 115 128 243 299 312 88 211 197 202 272 219 102 245 193 263 270 282 279 265 240 235 177 160 173 185 160 145 98 336 268 331 13 167 212 205 170
25 15 4 17 25 22 13 8 354 118 40 137 177 48 337 356 201 224 269 269 273 239 211 231 265 83 27 271 261 358 322 8 38 114 176 172 87 65 309 165 50 156 163 136 101 58 182
23 17 24 37 29 30 28 25 39 37 19 47 114 307 346 56 349 188 231 243 232 17 313 348 307 141 94 252 202 260 242 338 347 359 44 37 190 215 211 172 126 199 176 168 96 143 210
23 25 25 21 25 32 28 25 29 33 16 93 23 65 18 240 257 228 346 357 290 271 69 333 259 233 240 243 221 213 219 195 245 237 209 186 225 210 246 129 156 219 199 180 191 179 218
15 21 21 32 34 41 34 21 23 13 352 66 118 155 90 173 203 199 189 218 224 257 198 221 236 257 201 221 210 265 203 183 209 197 179 206 168 142 307 7 233 252 242 230 231 227 244
353 11 21 26 27 25 38 34 28 20 33 91 318 3 65 161 172 203 207 213 217 234 223 226 208 229 220 237 231 242 203 148 221 183 171 154 142 140 257 14 323 268 239 200 190 205 190
328 348 11 30 38 33 28 26 25 23 98 96 174 112 113 263 204 205 236 209 250 253 262 271 227 228 240 85 72 39 60 99 113 76 159 146 122 101 193 345 231 303 225 168 204 227 219
360 322 322 349 21 49 27 6 356 351 245 151 170 148 172 272 270 262 253 256 267 263 258 264 263 237 131 76 96 122 210 95 65 41 25 111 127 107 169 210 300 350 187 151 189 275 240
344 349 335 320 356 52 50 16 4 357 338 124 143 170 192 279 244 292 283 266 266 261 223 205 39 83 70 110 157 174 184 197 180 151 50 76 63 112 143 137 224 232 217 99 94 280 209
336 352 1 5 4 346 4 20 18 17 34 81 74 167 106 264 310 97 263 324 317 237 223 113 155 156 82 133 189 184 217 157 167 173 157 116 45 151 170 214 282 244 233 100 209 234 244
22 13 339 330 348 8 37 337 341 11 23 88 183 318 138 212 258 207 202 194 220 223 266 133 127 191 128 177 189 218 190 195 134 133 172 163 147 179 104 118 274 182 99 186 214 254 249
31 13 9 11 7 359 341 319 329 348 124 108 96 233 164 229 251 231 238 258 252 249 230 188 247 171 151 168 230 197 162 159 151 192 87 195 183 178 184 208 257 221 210 188 156 238 283